Estació municipal de Vilalleons (Osona, E.N.Guilleries-Savassona)

Consulta les dades en temps real de l'estació municipal de Vilalleons





Hora UTC 19:45
Temperatura 11.8 ºC
Humitat 84.0 %
Pressió 1012.7 hPa
Pluja 0.2 mm
Velocitat vent 0.0 km/h
Direcció vent N

Webcam

Dades diàries 2026-05-06



Hora UTC (hivern +1h; estiu +2h)
Temperatura (ºC) Humitat (%) Pressió (hPa) Velocitat vent (km/h) Precipitació (mm)
Hora UTC Aire Humitat Pressió Vel. Dir. Vel. Max Dir. Intent. màx 5 min.
00:05 6.1 95.0 1011.3 0.0 N 0.0 0.0
00:10 6.2 95.0 1011.2 0.0 N 0.0 0.0
00:15 6.2 95.0 1011.1 0.0 N 0.0 0.0
00:20 6.2 95.0 1011.1 0.0 N 0.0 0.0
00:25 6.2 95.0 1011.1 0.0 N 0.0 0.0
00:30 6.2 95.0 1011.1 0.0 N 0.0 0.0
00:35 6.0 95.0 1011.0 0.0 N 0.0 0.0
00:40 5.9 95.0 1011.1 0.0 N 0.0 0.0
00:45 6.0 95.0 1011.1 0.0 N 0.0 0.0
00:50 5.9 95.0 1011.0 0.0 N 0.0 0.0
00:55 5.9 95.0 1011.0 3.2 N 4.8 0.0
01:00 5.9 95.0 1010.9 0.0 N 4.8 0.0
01:05 5.9 95.0 1011.1 0.0 N 4.8 0.0
01:10 5.8 95.0 1011.0 0.0 N 3.2 0.0
01:15 5.7 95.0 1011.0 1.6 N 3.2 0.0
01:20 5.7 95.0 1011.0 4.8 N 4.8 0.0
01:25 5.7 95.0 1010.9 0.0 N 4.8 0.0
01:30 5.7 95.0 1010.9 4.8 N 4.8 0.0
01:35 5.4 95.0 1010.9 1.6 N 4.8 0.0
01:40 5.4 95.0 1010.9 1.6 N 4.8 0.0
01:45 5.4 96.0 1010.9 1.6 N 3.2 0.0
01:50 5.4 96.0 1010.8 3.2 N 4.8 0.0
01:55 5.4 95.0 1010.8 1.6 N 4.8 0.0
02:00 5.4 96.0 1010.8 0.0 N 3.2 0.0
02:05 5.6 96.0 1010.8 3.2 N 3.2 0.0
02:10 5.5 96.0 1010.8 1.6 N 3.2 0.0
02:15 5.4 96.0 1010.8 0.0 N 3.2 0.0
02:20 5.4 96.0 1010.8 0.0 N 3.2 0.0
02:25 5.4 96.0 1010.9 1.6 N 3.2 0.0
02:30 5.4 96.0 1011.1 1.6 N 3.2 0.0
02:35 5.4 96.0 1011.1 0.0 N 1.6 0.0
02:40 5.3 96.0 1011.0 3.2 N 3.2 0.0
02:45 5.3 96.0 1011.1 0.0 N 3.2 0.0
02:50 5.3 96.0 1011.1 1.6 N 1.6 0.0
02:55 5.2 96.0 1011.0 4.8 N 4.8 0.0
03:00 5.0 96.0 1011.0 1.6 N 4.8 0.0
03:05 5.0 96.0 1011.0 0.0 N 4.8 0.0
03:10 5.1 96.0 1011.0 0.0 SE 3.2 0.0
03:15 5.0 96.0 1010.9 0.0 SE 3.2 0.0
03:20 5.0 96.0 1010.9 0.0 SE 3.2 0.0
03:25 5.0 96.0 1010.9 0.0 SE 1.6 0.0
03:30 5.1 97.0 1010.9 0.0 SE 4.8 0.0
03:35 5.1 97.0 1010.9 0.0 SE 4.8 0.0
03:40 5.1 97.0 1010.9 1.6 SE 3.2 0.0
03:45 5.1 97.0 1011.0 0.0 SE 3.2 0.0
03:50 5.1 97.0 1010.9 0.0 SE 3.2 0.0
03:55 5.1 97.0 1010.9 3.2 N 3.2 0.0
04:00 5.0 96.0 1011.0 0.0 SE 3.2 0.0
04:05 4.9 96.0 1011.0 0.0 SE 3.2 0.0
04:10 4.8 96.0 1011.0 0.0 N 3.2 0.0
04:15 4.8 97.0 1010.9 3.2 N 3.2 0.0
04:20 4.6 96.0 1011.0 3.2 N 4.8 0.0
04:25 4.7 97.0 1011.1 1.6 N 4.8 0.0
04:30 4.6 96.0 1011.0 1.6 N 3.2 0.0
04:35 4.4 96.0 1011.2 0.0 N 3.2 0.0
04:40 4.5 97.0 1011.2 0.0 SE 3.2 0.0
04:45 4.5 97.0 1011.2 1.6 SE 3.2 0.0
04:50 4.5 97.0 1011.1 0.0 N 3.2 0.0
04:55 4.6 97.0 1011.2 3.2 N 3.2 0.0
05:00 4.5 97.0 1011.2 1.6 N 4.8 0.0
05:05 4.5 97.0 1011.2 0.0 N 4.8 0.0
05:10 4.5 97.0 1011.4 0.0 N 1.6 0.0
05:15 4.6 97.0 1011.4 0.0 N 0.0 0.0
05:20 4.6 97.0 1011.5 0.0 N 0.0 0.0
05:25 4.8 97.0 1011.5 0.0 N 0.0 0.0
05:30 5.1 97.0 1011.6 0.0 N 3.2 0.0
05:35 5.3 97.0 1011.8 1.6 N 4.8 0.0
05:40 5.6 97.0 1011.8 1.6 SW 6.4 0.0
05:45 5.8 98.0 1012.0 3.2 SW 6.4 0.0
05:50 6.0 98.0 1012.1 0.0 SW 6.4 0.0
05:55 6.3 98.0 1012.1 1.6 SW 3.2 0.0
06:00 6.4 98.0 1012.2 0.0 SW 3.2 0.2
06:05 6.4 98.0 1012.1 0.0 SW 3.2 0.0
06:10 6.7 98.0 1012.2 1.6 SW 4.8 0.0
06:15 7.2 98.0 1012.0 3.2 SW 4.8 0.0
06:20 7.4 98.0 1012.2 1.6 N 3.2 0.0
06:25 7.7 98.0 1012.4 1.6 N 3.2 0.0
06:30 7.6 98.0 1012.2 0.0 WSW 3.2 0.0
06:35 7.6 98.0 1012.4 0.0 W 4.8 0.0
06:40 7.6 98.0 1012.2 0.0 W 4.8 0.0
06:45 7.7 98.0 1012.3 0.0 WNW 0.0 0.0
06:50 7.7 98.0 1012.2 0.0 NW 0.0 0.0
06:55 7.9 98.0 1012.2 0.0 SW 6.4 0.0
07:00 7.9 98.0 1012.4 1.6 WSW 6.4 0.0
07:05 8.0 98.0 1012.3 1.6 WSW 6.4 0.0
07:10 8.1 98.0 1012.3 1.6 WSW 6.4 0.0
07:15 8.3 98.0 1012.2 1.6 NW 6.4 0.0
07:20 8.3 98.0 1012.2 0.0 NW 6.4 0.0
07:25 8.3 98.0 1012.3 6.4 N 6.4 0.0
07:30 8.7 98.0 1012.4 3.2 N 8.0 0.0
07:35 8.7 98.0 1012.5 3.2 N 6.4 0.0
07:40 8.7 98.0 1012.7 1.6 N 6.4 0.0
07:45 8.7 97.0 1012.6 3.2 N 4.8 0.0
07:50 8.6 97.0 1012.6 1.6 NNE 6.4 0.0
07:55 8.5 97.0 1012.4 1.6 NNE 6.4 0.0
08:00 8.7 97.0 1012.6 0.0 W 3.2 0.0
08:05 8.9 97.0 1012.7 0.0 WNW 1.6 0.0
08:10 8.9 97.0 1012.7 4.8 N 8.0 0.0
08:15 8.9 96.0 1012.7 1.6 NNW 8.0 0.0
08:20 9.0 96.0 1012.8 3.2 NNE 6.4 0.0
08:25 9.3 96.0 1012.8 3.2 NE 6.4 0.0
08:30 9.4 95.0 1013.0 4.8 NNE 8.0 0.0
08:35 9.6 94.0 1013.1 3.2 NE 8.0 0.0
08:40 9.8 93.0 1013.0 0.0 NNE 6.4 0.0
08:45 9.9 92.0 1013.3 0.0 WSW 6.4 0.0
08:50 10.3 92.0 1013.4 3.2 NNE 8.0 0.0
08:55 10.4 90.0 1013.3 3.2 NNW 8.0 0.0
09:00 10.5 89.0 1013.4 0.0 NW 6.4 0.0
09:05 10.8 87.0 1013.5 1.6 NW 8.0 0.0
09:10 11.2 87.0 1013.6 0.0 N 8.0 0.0
09:15 11.7 88.0 1013.6 6.4 WSW 6.4 0.0
09:20 11.9 86.0 1013.6 3.2 SW 6.4 0.0
09:25 12.1 84.0 1013.9 6.4 SW 9.7 0.0
09:30 12.3 82.0 1013.9 8.0 NNW 9.7 0.0
09:35 12.4 82.0 1014.0 1.6 NNW 9.7 0.0
09:40 12.4 80.0 1014.0 4.8 N 8.0 0.0
09:45 12.3 78.0 1014.1 4.8 ENE 9.7 0.0
09:50 12.5 80.0 1014.0 4.8 NW 9.7 0.0
09:55 12.8 81.0 1013.9 1.6 NE 8.0 0.0
10:00 12.9 78.0 1014.0 6.4 NNW 9.7 0.0
10:05 13.1 80.0 1013.7 8.0 N 9.7 0.0
10:10 13.1 77.0 1013.7 1.6 NNE 9.7 0.0
10:15 13.4 80.0 1013.7 6.4 SW 9.7 0.0
10:20 13.8 77.0 1013.9 6.4 NW 8.0 0.0
10:25 14.0 74.0 1013.7 1.6 NNW 14.5 0.0
10:30 14.3 76.0 1013.7 9.7 SW 12.9 0.0
10:35 14.3 73.0 1013.7 4.8 NNE 12.9 0.0
10:40 14.5 78.0 1013.7 1.6 WSW 12.9 0.0
10:45 14.9 74.0 1013.6 1.6 WSW 11.3 0.0
10:50 15.2 79.0 1013.4 3.2 WSW 11.3 0.0
10:55 15.6 75.0 1013.5 4.8 W 14.5 0.0
11:00 15.8 69.0 1013.4 0.0 SW 14.5 0.0
11:05 16.2 71.0 1013.5 6.4 S 8.0 0.0
11:10 16.4 68.0 1013.4 6.4 N 12.9 0.0
11:15 16.3 64.0 1013.4 6.4 W 12.9 0.0
11:20 16.1 69.0 1013.2 4.8 W 12.9 0.0
11:25 16.4 67.0 1013.4 8.0 SSW 11.3 0.0
11:30 16.5 62.0 1013.1 6.4 WSW 12.9 0.0
11:35 16.3 64.0 1012.8 6.4 WSW 9.7 0.0
11:40 16.6 67.0 1012.8 4.8 WSW 9.7 0.0
11:45 17.1 63.0 1013.0 0.0 SSW 12.9 0.0
11:50 17.3 67.0 1013.0 4.8 WSW 12.9 0.0
11:55 16.9 61.0 1012.6 3.2 W 12.9 0.0
12:00 16.9 64.0 1012.5 3.2 WSW 12.9 0.0
12:05 16.7 65.0 1012.5 6.4 SW 12.9 0.0
12:10 16.9 62.0 1012.6 4.8 WSW 11.3 0.0
12:15 17.3 57.0 1012.5 9.7 ESE 14.5 0.0
12:20 17.6 59.0 1012.5 6.4 SSW 14.5 0.0
12:25 18.1 60.0 1012.7 4.8 W 14.5 0.0
12:30 18.2 57.0 1012.9 8.0 S 14.5 0.0
12:35 18.3 56.0 1012.7 6.4 SW 17.7 0.0
12:40 18.3 51.0 1012.7 6.4 WSW 17.7 0.0
12:45 18.1 56.0 1012.6 4.8 SW 17.7 0.0
12:50 17.8 54.0 1012.5 4.8 NNW 9.7 0.0
12:55 17.8 56.0 1012.5 4.8 SW 11.3 0.0
13:00 17.8 58.0 1012.3 4.8 WSW 14.5 0.0
13:05 17.9 58.0 1012.3 9.7 SW 12.9 0.0
13:10 18.0 55.0 1012.3 3.2 WNW 16.1 0.0
13:15 17.8 60.0 1012.4 6.4 SW 16.1 0.0
13:20 18.0 60.0 1012.3 1.6 SW 11.3 0.0
13:25 18.2 59.0 1012.4 6.4 SW 14.5 0.0
13:30 18.4 64.0 1012.3 6.4 SSW 17.7 0.0
13:35 18.2 59.0 1012.1 3.2 WSW 17.7 0.0
13:40 18.1 57.0 1012.0 3.2 SSW 17.7 0.0
13:45 18.8 58.0 1011.9 11.3 SW 12.9 0.0
13:50 19.0 60.0 1011.8 6.4 SW 16.1 0.0
13:55 18.7 60.0 1011.5 6.4 SW 17.7 0.0
14:00 18.6 54.0 1011.4 8.0 SW 17.7 0.0
14:05 18.7 56.0 1011.5 11.3 SW 17.7 0.0
14:10 18.4 56.0 1011.1 6.4 S 14.5 0.0
14:15 18.1 57.0 1011.0 3.2 WNW 17.7 0.0
14:20 17.8 61.0 1011.1 6.4 SSW 16.1 0.0
14:25 18.2 60.0 1011.2 8.0 SW 16.1 0.0
14:30 18.6 61.0 1011.2 9.7 SW 24.1 0.0
14:35 18.3 61.0 1011.0 16.1 SE 24.1 0.0
14:40 18.3 62.0 1011.1 11.3 WSW 19.3 0.0
14:45 18.3 59.0 1010.9 4.8 SE 17.7 0.0
14:50 18.4 59.0 1010.8 9.7 SW 16.1 0.0
14:55 18.2 55.0 1010.9 6.4 SSW 14.5 0.0
15:00 17.9 59.0 1010.8 4.8 SSW 16.1 0.0
15:05 18.0 57.0 1010.8 3.2 WSW 16.1 0.0
15:10 17.8 56.0 1010.7 11.3 WSW 14.5 0.0
15:15 17.7 59.0 1010.8 9.7 SSE 16.1 0.0
15:20 17.8 58.0 1010.9 6.4 SSW 27.4 0.0
15:25 17.7 56.0 1010.8 8.0 WSW 27.4 0.0
15:30 17.6 58.0 1010.7 6.4 WSW 19.3 0.0
15:35 17.7 59.0 1010.8 12.9 SW 12.9 0.0
15:40 17.6 60.0 1010.7 8.0 SW 12.9 0.0
15:45 17.3 60.0 1010.7 8.0 SSW 12.9 0.0
15:50 16.8 61.0 1010.8 1.6 WSW 12.9 0.0
15:55 16.8 60.0 1010.7 1.6 WNW 11.3 0.0
16:00 16.8 61.0 1010.8 3.2 W 12.9 0.0
16:05 17.2 61.0 1010.6 4.8 SSE 12.9 0.0
16:10 17.0 60.0 1010.8 8.0 S 19.3 0.0
16:15 16.8 61.0 1010.8 3.2 SW 19.3 0.0
16:20 17.0 61.0 1010.8 3.2 SSW 14.5 0.0
16:25 17.1 60.0 1010.7 9.7 S 16.1 0.0
16:30 16.9 61.0 1010.8 6.4 SW 12.9 0.0
16:35 17.1 62.0 1010.8 6.4 SW 14.5 0.0
16:40 17.3 61.0 1010.9 3.2 SSE 14.5 0.0
16:45 16.9 62.0 1011.0 6.4 WSW 17.7 0.0
16:50 16.6 60.0 1011.0 9.7 WSW 17.7 0.0
16:55 16.3 63.0 1011.0 4.8 S 16.1 0.0
17:00 16.1 62.0 1011.0 6.4 SE 12.9 0.0
17:05 15.8 62.0 1011.1 8.0 SE 12.9 0.0
17:10 15.6 63.0 1011.0 0.0 WSW 14.5 0.0
17:15 15.6 64.0 1011.0 4.8 WSW 16.1 0.0
17:20 15.7 65.0 1011.0 11.3 SW 16.1 0.0
17:25 15.7 64.0 1011.0 12.9 WSW 12.9 0.0
17:30 15.8 64.0 1011.1 11.3 S 14.5 0.0
17:35 15.8 64.0 1011.0 3.2 SSW 12.9 0.0
17:40 15.7 63.0 1011.1 3.2 SW 12.9 0.0
17:45 15.6 65.0 1011.2 1.6 SSE 14.5 0.0
17:50 15.3 65.0 1011.0 3.2 SW 14.5 0.0
17:55 15.2 65.0 1011.1 0.0 SW 12.9 0.0
18:00 14.9 67.0 1011.1 3.2 SSW 8.0 0.0
18:05 14.7 67.0 1011.3 6.4 S 9.7 0.0
18:10 14.6 68.0 1011.4 4.8 SSE 8.0 0.0
18:15 14.4 68.0 1011.4 1.6 SSW 9.7 0.0
18:20 14.3 68.0 1011.5 4.8 SSW 6.4 0.0
18:25 14.1 69.0 1011.6 8.0 WSW 9.7 0.0
18:30 14.0 69.0 1011.5 1.6 SW 11.3 0.0
18:35 13.9 70.0 1011.7 0.0 SW 3.2 0.0
18:40 13.7 71.0 1011.8 1.6 SSE 8.0 0.0
18:45 13.6 71.0 1011.9 0.0 SSE 8.0 0.0
18:50 13.5 74.0 1012.0 3.2 ESE 6.4 0.0
18:55 13.3 77.0 1012.2 4.8 ESE 11.3 0.0
19:00 13.2 78.0 1012.1 4.8 SE 11.3 0.0
19:05 12.9 79.0 1012.4 6.4 ESE 9.7 0.0
19:10 12.8 81.0 1012.3 3.2 N 11.3 0.0
19:15 12.7 81.0 1012.3 4.8 N 11.3 0.0
19:20 12.6 82.0 1012.4 0.0 N 6.4 0.0
19:25 12.5 82.0 1012.4 0.0 N 6.4 0.0
19:30 12.3 83.0 1012.4 0.0 N 4.8 0.0
19:35 12.2 83.0 1012.5 1.6 N 3.2 0.0
19:40 12.0 83.0 1012.5 0.0 N 4.8 0.0
19:45 11.8 84.0 1012.7 0.0 N 4.8 0.0
Màxima 19.0 98.0 1014.1 16.1 SE 27.4 0.2
Mínima 4.4 51.0 1010.6
Total 0.2